Simultaneous Nadir Overpasses (SNOs) Predictions

Prediction of SNOs between METOP-A and TERRA Satellite Orbit:

Table of predicted SNOs for the next 14.0 days since TLE Epoch: 2/16/2019
Index Date (METOP-A) Time (METOP-A) Lat,Lon (METOP-A) SZA (METOP-A ) Date (TERRA) Time (TERRA) Lat,Lon (TERRA) SZA (TERRA ) Distance(km) Time Diff (sec)
1 02/17/2019 16:40:02 81.44, -19.77 95.96 02/17/2019 16:40:12 81.45, -19.86 95.96 1.81 10
2 02/17/2019 17:30:42 -81.44, 147.70 84.04 02/17/2019 17:29:39 -81.45, 147.72 84.06 0.84 63
3 02/20/2019 12:14:17 81.45, 46.34 94.94 02/20/2019 12:14:28 81.44, 46.29 94.94 0.99 11
4 02/20/2019 13:04:57 -81.44,-146.18 85.06 02/20/2019 13:03:55 -81.44,-146.09 85.09 1.62 62
5 02/23/2019 07:48:31 81.45, 112.83 93.94 02/23/2019 07:48:43 81.45, 112.85 93.94 0.34 12
6 02/23/2019 08:39:11 -81.44, -79.67 86.06 02/23/2019 08:38:10 -81.45, -79.51 86.07 2.69 61
7 02/26/2019 03:22:44 81.45, 179.30 92.92 02/26/2019 03:22:57 81.45, 179.41 92.94 1.91 13
8 02/26/2019 04:13:24 -81.44, -13.18 87.08 02/26/2019 04:12:25 -81.43, -13.31 87.13 2.46 59
9 02/28/2019 22:56:58 81.44,-114.23 91.88 02/28/2019 22:57:13 81.44,-114.41 91.86 2.96 15




NCC Satellite Simultaneous Nadir Overpasses (SNOs) Prediction Service
